Regional Weather Roundup
Issued by NWS Cleveland, OH

Home | Current Version | Previous Version | Text Only | Print | Product List | Glossary Off
Versions: 1 2 3 4 5 6 7 8 9 10 11 12 13 14 15 16 17 18 19 20 21 22 23 24 25 26 27 28 29 30 31 32 33 34 35 36 37 38 39 40 41 42 43 44 45 46 47 48 49 50

000
ASUS41 KCLE 251910
RWRCLE
OHIO REGIONAL WEATHER ROUNDUP
NATIONAL WEATHER SERVICE CLEVELAND, OH
300 PM EDT MON MAY 25 2015

NOTE: "FAIR" INDICATES FEW OR NO CLOUDS BELOW 12,000 FEET WITH NO
SIGNIFICANT WEATHER AND/OR OBSTRUCTIONS TO VISIBILITY.

OHZ001>008-015>018-024>027-034-035-043-044-252000-
   NORTHWEST OHIO

CITY           SKY/WX    TMP DP  RH WIND       PRES   REMARKS
DEFIANCE       PTSUNNY   80  63  55 SW20G38   30.00F
FINDLAY        CLOUDY    76  62  62 SW25G33   30.06R
TOLEDO EXPRESS PTSUNNY   78  63  59 SW18G38   30.00S
TOLEDO EXEC    PTSUNNY   80  61  52 SW28G36   30.01S
LIMA           PTSUNNY   74  63  68 SW16G31   30.08S
$$

OHZ009>014-019>023-028>033-038-089-252000-
   NORTHEAST OHIO

CITY           SKY/WX    TMP DP  RH WIND       PRES   REMARKS
CLE-HOPKINS    CLOUDY    80  61  52 SW14G31   30.06F
CLE-LAKEFRONT  CLOUDY    82  60  47 S22G29    30.02F
CUY CO. ARPT   CLOUDY    82  64  54 SW12G17   30.05F
LORAIN-ELYRIA  LGT RAIN  80  62  54 SW25G36   30.06S
ASHTABULA      MOSUNNY   80  60  50 SW15      30.08S
AKRON-CANTON   PTSUNNY   83  61  47 S17G25    30.10F
WOOSTER        PTSUNNY   81  61  50 SW17G25   30.09F
MANSFIELD      CLOUDY    77  60  55 SW17G33   30.11R
YOUNGSTOWN     PTSUNNY   81  60  48 SW15G21   30.10F
$$

OHZ042-051>053-060>062-070>072-077>081-252000-
  SOUTHWEST OHIO

CITY           SKY/WX    TMP DP  RH WIND       PRES   REMARKS
CINC-COVINGTON CLOUDY    72  65  78 SW14G25   30.15F
CINC-LUNKEN    CLOUDY    75  65  70 SW15G23   30.15F
HAMILTON       LGT RAIN  73  66  78 SW8       30.15F
DAYTON         LGT RAIN  75  66  73 SW23G29   30.13F
WRIGHT-PAT AFB CLOUDY    72  65  76 S17       30.13S
DAYTON GENERAL CLOUDY    70  64  81 SW16G22   30.15R
WILMINGTON     CLOUDY    79  60  52 SW20G29   30.13F
$$

OHZ036-037-039>041-045>050-054>059-063>069-073>076-082>088-252000-
  CENTRAL AND SOUTHEAST OHIO

CITY           SKY/WX    TMP DP  RH WIND       PRES   REMARKS
COLUMBUS       CLOUDY    82  60  47 W18       30.11F
OSU AIRPORT    CLOUDY    78  60  53 SW23G33   30.12F
BOLTON FIELD   PTSUNNY   81  63  54 SW23      30.13F
RICKENBACK AFB CLOUDY    82  61  49 SW21G26   30.11S
NEWARK         PTSUNNY   81  62  52 SW13G20   30.11F
MARION         CLOUDY    76  62  62 SW24G32   30.11S
LANCASTER      CLOUDY    83  60  45 SW9G24    30.12F
ZANESVILLE     PTSUNNY   80  59  48 SW12G24   30.14F
NEW PHILLY     MOSUNNY   84  61  45 S9        30.12F
$$


USA.gov is the U.S. government's official web portal to all federal, state and local government web resources and services.